QPF
0.00 0.00 0.00 0.00 0.00 0.00 0.00 0.00 0.00 0.00 0.00 0.00 0.00 0.00 0.00 0.00 0.00 0.00 0.00 0.00 0.00 0.00 0.00 0.00 0.00 0.00 0.00 0.00 0.00 0.01 0.01 0.01 0.01 0.02 0.03 0.04 0.04 0.06 0.07 0.05 0.06 0.10 0.13 0.14
0.00 0.00 0.00 0.00 0.00 0.00 0.00 0.00 0.00 0.00 0.00 0.00 0.00 0.00 0.00 0.00 0.00 0.00 0.00 0.00 0.00 0.00 0.00 0.00 0.00 0.00 0.00 0.00 0.00 0.00 0.00 0.01 0.01 0.02 0.02 0.02 0.04 0.06 0.06 0.06 0.05 0.07 0.09 0.09
0.00 0.00 0.00 0.00 0.00 0.00 0.00 0.00 0.00 0.00 0.00 0.00 0.00 0.00 0.00 0.00 0.00 0.00 0.00 0.00 0.00 0.00 0.00 0.00 0.00 0.00 0.00 0.00 0.01 0.00 0.00 0.01 0.01 0.01 0.01 0.01 0.02 0.04 0.05 0.04 0.04 0.05 0.06 0.06
0.00 0.00 0.00 0.00 0.00 0.00 0.00 0.00 0.00 0.00 0.00 0.00 0.00 0.00 0.00 0.00 0.00 0.00 0.00 0.00 0.00 0.00 0.00 0.00 0.00 0.00 0.00 0.00 0.00 0.01 0.00 0.01 0.01 0.01 0.01 0.01 0.02 0.03 0.04 0.03 0.02 0.02 0.04 0.05
0.00 0.00 0.00 0.00 0.00 0.00 0.00 0.00 0.00 0.00 0.00 0.00 0.00 0.00 0.00 0.00 0.00 0.00 0.00 0.00 0.00 0.00 0.00 0.00 0.00 0.00 0.00 0.00 0.00 0.00 0.01 0.01 0.01 0.01 0.01 0.02 0.01 0.01 0.02 0.02 0.02 0.01 0.02 0.03
0.00 0.00 0.00 0.00 0.00 0.00 0.00 0.00 0.00 0.00 0.00 0.00 0.00 0.00 0.00 0.00 0.00 0.00 0.00 0.00 0.00 0.00 0.00 0.00 0.00 0.00 0.00 0.00 0.01 0.01 0.01 0.01 0.01 0.01 0.01 0.01 0.01 0.01 0.01 0.02 0.02 0.02 0.02 0.02
0.00 0.00 0.00 0.00 0.00 0.00 0.00 0.00 0.00 0.00 0.00 0.00 0.00 0.00 0.00 0.00 0.00 0.00 0.00 0.00 0.00 0.00 0.00 0.00 0.00 0.00 0.00 0.00 0.00 0.00 0.00 0.00 0.00 0.00 0.00 0.00 0.01 0.01 0.02 0.02 0.02 0.02 0.02 0.01
0.00 0.00 0.00 0.00 0.00 0.00 0.00 0.00 0.00 0.00 0.00 0.00 0.00 0.00 0.00 0.00 0.00 0.00 0.00 0.00 0.00 0.00 0.00 0.00 0.00 0.00 0.00 0.00 0.00 0.00 0.00 0.00 0.00 0.00 0.00 0.00 0.01 0.02 0.02 0.01 0.02 0.02 0.01 0.01
0.00 0.00 0.00 0.00 0.00 0.00 0.00 0.00 0.00 0.00 0.00 0.00 0.00 0.00 0.00 0.00 0.00 0.00 0.00 0.00 0.00 0.00 0.00 0.00 0.00 0.00 0.00 0.00 0.00 0.00 0.00 0.00 0.00 0.00 0.00 0.00 0.01 0.01 0.01 0.02 0.02 0.02 0.02 0.01
0.00 0.00 0.00 0.00 0.00 0.00 0.00 0.00 0.00 0.00 0.00 0.00 0.00 0.00 0.00 0.00 0.00 0.00 0.00 0.00 0.00 0.00 0.00 0.00 0.00 0.00 0.00 0.00 0.00 0.00 0.00 0.00 0.00 0.00 0.00 0.00 0.01 0.01 0.01 0.01 0.01 0.01 0.02 0.01
0.00 0.00 0.00 0.00 0.00 0.00 0.00 0.00 0.00 0.00 0.00 0.00 0.00 0.00 0.00 0.00 0.00 0.00 0.00 0.00 0.00 0.00 0.00 0.00 0.00 0.00 0.00 0.00 0.00 0.00 0.00 0.00 0.00 0.00 0.00 0.00 0.00 0.00 0.00 0.00 0.00 0.01 0.01 0.01
0.00 0.00 0.00 0.00 0.00 0.00 0.00 0.00 0.00 0.00 0.00 0.00 0.00 0.00 0.00 0.00 0.00 0.00 0.00 0.00 0.00 0.00 0.00 0.00 0.00 0.00 0.00 0.00 0.00 0.00 0.00 0.00 0.00 0.00 0.00 0.00 0.00 0.00 0.00 0.00 0.00 0.00 0.00 0.00
0.00 0.00 0.00 0.00 0.00 0.00 0.00 0.00 0.00 0.00 0.00 0.00 0.00 0.00 0.00 0.00 0.00 0.00 0.00 0.00 0.00 0.00 0.00 0.00 0.00 0.00 0.00 0.00 0.00 0.00 0.00 0.00 0.00 0.00 0.00 0.00 0.00 0.01 0.01 0.00 0.00 0.00 0.00 0.00
0.00 0.00 0.00 0.00 0.00 0.00 0.00 0.00 0.00 0.00 0.00 0.00 0.00 0.00 0.00 0.00 0.00 0.00 0.00 0.00 0.00 0.00 0.00 0.00 0.00 0.00 0.00 0.00 0.00 0.00 0.00 0.00 0.00 0.00 0.00 0.00 0.00 0.00 0.00 0.00 0.00 0.00 0.00 0.00
0.00 0.00 0.00 0.00 0.00 0.00 0.00 0.00 0.00 0.00 0.00 0.00 0.00 0.00 0.00 0.00 0.00 0.00 0.00 0.00 0.00 0.00 0.00 0.00 0.00 0.00 0.00 0.00 0.00 0.00 0.00 0.00 0.00 0.00 0.00 0.00 0.00 0.00 0.00 0.00 0.00 0.00 0.00 0.00
0.00 0.00 0.00 0.00 0.00 0.00 0.00 0.00 0.00 0.00 0.00 0.00 0.00 0.00 0.00 0.00 0.00 0.00 0.00 0.00 0.00 0.00 0.00 0.00 0.00 0.00 0.00 0.00 0.00 0.00 0.00 0.00 0.00 0.00 0.00 0.00 0.00 0.00 0.00 0.00 0.00 0.00 0.00 0.00
0.00 0.00 0.00 0.00 0.00 0.00 0.00 0.00 0.00 0.00 0.00 0.00 0.00 0.00 0.00 0.00 0.00 0.00 0.00 0.00 0.00 0.00 0.00 0.00 0.00 0.00 0.00 0.00 0.00 0.00 0.00 0.00 0.00 0.00 0.00 0.00 0.00 0.00 0.00 0.00 0.00 0.00 0.00 0.00
0.00 0.00 0.00 0.00 0.00 0.00 0.00 0.00 0.00 0.00 0.00 0.00 0.00 0.00 0.00 0.00 0.00 0.00 0.00 0.00 0.00 0.00 0.00 0.00 0.00 0.00 0.00 0.00 0.00 0.00 0.00 0.00 0.00 0.00 0.00 0.00 0.00 0.00 0.00 0.00 0.00 0.00 0.00 0.00
0.00 0.00 0.00 0.00 0.00 0.00 0.00 0.00 0.00 0.00 0.00 0.00 0.00 0.00 0.00 0.00 0.00 0.00 0.00 0.00 0.00 0.00 0.00 0.00 0.00 0.00 0.00 0.00 0.00 0.00 0.00 0.00 0.00 0.00 0.00 0.00 0.00 0.00 0.00 0.00 0.00 0.00 0.00 0.00
0.00 0.00 0.00 0.00 0.00 0.00 0.00 0.00 0.00 0.00 0.00 0.00 0.00 0.00 0.00 0.00 0.00 0.00 0.00 0.00 0.00 0.00 0.00 0.00 0.00 0.00 0.00 0.00 0.00 0.00 0.00 0.00 0.00 0.00 0.00 0.00 0.00 0.00 0.00 0.00 0.00 0.00 0.00 0.00
0.00 0.00 0.00 0.00 0.00 0.00 0.00 0.00 0.00 0.00 0.00 0.00 0.00 0.00 0.00 0.00 0.00 0.00 0.00 0.00 0.00 0.00 0.00 0.00 0.00 0.00 0.00 0.00 0.00 0.00 0.00 0.00 0.00 0.00 0.00 0.00 0.00 0.00 0.00 0.00 0.00 0.00 0.00 0.00
0.00 0.00 0.00 0.00 0.00 0.00 0.00 0.00 0.00 0.00 0.00 0.00 0.00 0.00 0.00 0.00 0.00 0.00 0.00 0.00 0.00 0.00 0.00 0.00 0.00 0.00 0.00 0.00 0.00 0.00 0.00 0.00 0.00 0.00 0.00 0.00 0.00 0.00 0.00 0.00 0.00 0.00 0.00 0.00
0.00 0.00 0.00 0.00 0.00 0.00 0.00 0.00 0.00 0.00 0.00 0.00 0.00 0.00 0.00 0.00 0.00 0.00 0.00 0.00 0.00 0.00 0.00 0.00 0.00 0.00 0.00 0.00 0.00 0.00 0.00 0.00 0.00 0.00 0.00 0.00 0.00 0.00 0.00 0.00 0.00 0.00 0.00 0.00
0.00 0.00 0.00 0.00 0.00 0.00 0.00 0.00 0.00 0.00 0.00 0.00 0.00 0.00 0.00 0.00 0.00 0.00 0.00 0.00 0.00 0.00 0.00 0.00 0.00 0.00 0.00 0.00 0.00 0.00 0.00 0.00 0.00 0.00 0.00 0.00 0.00 0.00 0.00 0.00 0.00 0.00 0.00 0.00
0.00 0.00 0.00 0.00 0.00 0.00 0.00 0.00 0.00 0.00 0.00 0.00 0.00 0.00 0.00 0.00 0.00 0.00 0.00 0.00 0.00 0.00 0.00 0.00 0.00 0.00 0.00 0.00 0.00 0.00 0.00 0.00 0.00 0.00 0.00 0.00 0.00 0.00 0.00 0.00 0.00 0.00 0.00 0.00
0.00 0.00 0.00 0.00 0.00 0.00 0.00 0.00 0.00 0.00 0.00 0.00 0.00 0.00 0.00 0.00 0.00 0.00 0.00 0.00 0.00 0.00 0.00 0.00 0.00 0.00 0.00 0.00 0.00 0.00 0.00 0.00 0.00 0.00 0.00 0.00 0.00 0.00 0.00 0.00 0.00 0.00 0.00 0.00
0.00 0.00 0.00 0.00 0.00 0.00 0.00 0.00 0.00 0.00 0.00 0.00 0.00 0.00 0.00 0.00 0.00 0.00 0.00 0.00 0.00 0.00 0.00 0.00 0.00 0.00 0.00 0.00 0.00 0.00 0.00 0.00 0.00 0.00 0.00 0.00 0.00 0.00 0.00 0.00 0.00 0.00 0.00 0.00
MSLP
1017.61 1017.88 1018.12 1018.33 1018.51 1018.65 1018.76 1018.83 1018.86 1018.86 1018.82 1018.76 1018.68 1018.58 1018.47 1018.35 1018.21 1018.06 1017.90 1017.71 1017.51 1017.31 1017.09 1016.89 1016.70 1016.53 1016.39 1016.28 1016.18 1016.09 1016.00 1015.88 1015.74 1015.55 1015.32 1015.05 1014.73 1014.37 1014.00 1013.61 1013.21 1012.83 1012.46 1012.11
1017.71 1017.91 1018.03 1018.09 1018.11 1018.08 1018.04 1018.00 1017.96 1017.95 1017.96 1017.99 1018.03 1018.06 1018.07 1018.05 1017.99 1017.88 1017.72 1017.52 1017.29 1017.05 1016.82 1016.63 1016.47 1016.37 1016.31 1016.29 1016.29 1016.30 1016.29 1016.24 1016.15 1016.00 1015.79 1015.52 1015.20 1014.84 1014.46 1014.06 1013.67 1013.28 1012.91 1012.57
1017.81 1017.93 1017.93 1017.84 1017.68 1017.49 1017.31 1017.15 1017.06 1017.05 1017.10 1017.22 1017.37 1017.54 1017.68 1017.77 1017.79 1017.73 1017.60 1017.39 1017.15 1016.89 1016.65 1016.46 1016.32 1016.25 1016.24 1016.29 1016.37 1016.44 1016.50 1016.52 1016.47 1016.36 1016.17 1015.92 1015.61 1015.25 1014.87 1014.47 1014.07 1013.68 1013.31 1012.97
1017.89 1017.92 1017.81 1017.58 1017.27 1016.93 1016.62 1016.38 1016.24 1016.22 1016.31 1016.51 1016.77 1017.06 1017.32 1017.52 1017.64 1017.65 1017.55 1017.37 1017.13 1016.87 1016.62 1016.42 1016.29 1016.23 1016.25 1016.32 1016.43 1016.54 1016.63 1016.68 1016.67 1016.58 1016.43 1016.20 1015.91 1015.58 1015.22 1014.83 1014.44 1014.06 1013.69 1013.35
1017.89 1017.83 1017.62 1017.27 1016.85 1016.41 1016.01 1015.70 1015.53 1015.50 1015.63 1015.89 1016.24 1016.63 1017.00 1017.30 1017.51 1017.59 1017.56 1017.42 1017.21 1016.97 1016.73 1016.53 1016.39 1016.33 1016.33 1016.40 1016.50 1016.61 1016.70 1016.76 1016.76 1016.70 1016.57 1016.38 1016.13 1015.84 1015.52 1015.17 1014.81 1014.45 1014.10 1013.77
1017.71 1017.58 1017.29 1016.87 1016.38 1015.88 1015.43 1015.09 1014.91 1014.90 1015.05 1015.36 1015.77 1016.23 1016.68 1017.07 1017.36 1017.52 1017.56 1017.49 1017.34 1017.14 1016.93 1016.74 1016.61 1016.53 1016.51 1016.55 1016.61 1016.69 1016.76 1016.80 1016.80 1016.75 1016.65 1016.50 1016.31 1016.08 1015.81 1015.52 1015.21 1014.89 1014.56 1014.25
1017.27 1017.07 1016.73 1016.29 1015.78 1015.28 1014.84 1014.52 1014.35 1014.37 1014.55 1014.89 1015.34 1015.84 1016.34 1016.79 1017.15 1017.39 1017.50 1017.51 1017.43 1017.30 1017.14 1016.99 1016.87 1016.79 1016.75 1016.75 1016.77 1016.80 1016.83 1016.84 1016.83 1016.79 1016.73 1016.63 1016.50 1016.34 1016.15 1015.93 1015.68 1015.40 1015.11 1014.82
1016.50 1016.26 1015.92 1015.49 1015.02 1014.57 1014.19 1013.93 1013.82 1013.88 1014.10 1014.46 1014.92 1015.44 1015.96 1016.44 1016.83 1017.13 1017.33 1017.42 1017.42 1017.37 1017.29 1017.20 1017.11 1017.05 1017.00 1016.97 1016.95 1016.95 1016.94 1016.93 1016.91 1016.88 1016.85 1016.80 1016.74 1016.66 1016.55 1016.40 1016.22 1016.00 1015.75 1015.48
1015.42 1015.17 1014.85 1014.48 1014.10 1013.76 1013.49 1013.33 1013.30 1013.42 1013.67 1014.05 1014.51 1015.02 1015.53 1016.01 1016.42 1016.76 1017.01 1017.17 1017.27 1017.31 1017.31 1017.29 1017.26 1017.22 1017.19 1017.16 1017.13 1017.10 1017.07 1017.05 1017.03 1017.03 1017.03 1017.04 1017.05 1017.04 1017.00 1016.93 1016.81 1016.65 1016.43 1016.19
1014.14 1013.89 1013.62 1013.34 1013.08 1012.87 1012.74 1012.71 1012.79 1012.99 1013.29 1013.67 1014.12 1014.60 1015.08 1015.53 1015.94 1016.28 1016.57 1016.79 1016.95 1017.07 1017.16 1017.22 1017.25 1017.27 1017.27 1017.26 1017.23 1017.21 1017.18 1017.17 1017.17 1017.20 1017.25 1017.31 1017.38 1017.44 1017.47 1017.46 1017.40 1017.28 1017.10 1016.87
1012.83 1012.59 1012.37 1012.19 1012.06 1012.00 1012.02 1012.13 1012.33 1012.60 1012.95 1013.35 1013.78 1014.22 1014.66 1015.06 1015.44 1015.77 1016.05 1016.30 1016.52 1016.70 1016.85 1016.97 1017.07 1017.15 1017.19 1017.22 1017.22 1017.22 1017.22 1017.24 1017.28 1017.35 1017.44 1017.56 1017.69 1017.80 1017.89 1017.93 1017.91 1017.83 1017.68 1017.47
1011.69 1011.46 1011.29 1011.19 1011.17 1011.24 1011.39 1011.63 1011.93 1012.28 1012.68 1013.09 1013.51 1013.91 1014.30 1014.65 1014.98 1015.28 1015.54 1015.79 1016.02 1016.23 1016.42 1016.59 1016.74 1016.86 1016.95 1017.02 1017.07 1017.11 1017.15 1017.21 1017.29 1017.40 1017.54 1017.71 1017.87 1018.03 1018.16 1018.24 1018.25 1018.20 1018.08 1017.90
1010.90 1010.66 1010.50 1010.45 1010.50 1010.65 1010.90 1011.22 1011.60 1012.02 1012.45 1012.88 1013.29 1013.67 1014.01 1014.32 1014.60 1014.86 1015.10 1015.32 1015.54 1015.75 1015.96 1016.14 1016.31 1016.46 1016.58 1016.69 1016.77 1016.85 1016.93 1017.04 1017.16 1017.32 1017.50 1017.69 1017.89 1018.08 1018.23 1018.33 1018.38 1018.36 1018.27 1018.12
1010.56 1010.28 1010.09 1010.03 1010.09 1010.26 1010.54 1010.90 1011.32 1011.77 1012.22 1012.66 1013.07 1013.44 1013.76 1014.05 1014.30 1014.52 1014.73 1014.93 1015.13 1015.32 1015.51 1015.69 1015.86 1016.01 1016.14 1016.26 1016.37 1016.48 1016.60 1016.73 1016.89 1017.08 1017.28 1017.50 1017.72 1017.92 1018.08 1018.20 1018.26 1018.27 1018.21 1018.12
1010.68 1010.31 1010.06 1009.92 1009.92 1010.05 1010.29 1010.62 1011.02 1011.47 1011.92 1012.36 1012.78 1013.15 1013.48 1013.76 1014.01 1014.23 1014.43 1014.61 1014.79 1014.96 1015.13 1015.29 1015.44 1015.58 1015.70 1015.82 1015.94 1016.06 1016.19 1016.34 1016.52 1016.71 1016.93 1017.15 1017.37 1017.56 1017.73 1017.85 1017.93 1017.96 1017.94 1017.89
1011.16 1010.69 1010.31 1010.05 1009.93 1009.94 1010.08 1010.32 1010.66 1011.05 1011.48 1011.92 1012.33 1012.73 1013.08 1013.39 1013.66 1013.91 1014.12 1014.31 1014.49 1014.66 1014.81 1014.95 1015.08 1015.20 1015.32 1015.42 1015.53 1015.65 1015.78 1015.93 1016.09 1016.29 1016.49 1016.69 1016.89 1017.07 1017.23 1017.35 1017.43 1017.48 1017.49 1017.50
1011.86 1011.27 1010.75 1010.32 1010.03 1009.87 1009.85 1009.96 1010.19 1010.49 1010.86 1011.27 1011.69 1012.10 1012.49 1012.85 1013.17 1013.47 1013.73 1013.97 1014.17 1014.36 1014.52 1014.66 1014.79 1014.90 1015.00 1015.09 1015.19 1015.29 1015.41 1015.54 1015.69 1015.86 1016.03 1016.21 1016.38 1016.53 1016.66 1016.76 1016.84 1016.89 1016.94 1016.99
1012.63 1011.92 1011.24 1010.64 1010.16 1009.81 1009.61 1009.55 1009.62 1009.81 1010.09 1010.44 1010.84 1011.26 1011.68 1012.09 1012.49 1012.85 1013.19 1013.49 1013.76 1013.99 1014.19 1014.37 1014.51 1014.64 1014.74 1014.84 1014.93 1015.02 1015.12 1015.24 1015.36 1015.49 1015.63 1015.76 1015.89 1016.00 1016.09 1016.17 1016.23 1016.29 1016.35 1016.42
1013.34 1012.53 1011.72 1010.96 1010.30 1009.77 1009.37 1009.13 1009.03 1009.08 1009.24 1009.51 1009.86 1010.26 1010.70 1011.15 1011.60 1012.03 1012.45 1012.83 1013.17 1013.49 1013.75 1013.99 1014.18 1014.35 1014.49 1014.61 1014.71 1014.81 1014.90 1015.00 1015.10 1015.20 1015.29 1015.39 1015.47 1015.53 1015.59 1015.63 1015.67 1015.71 1015.76 1015.84
1013.92 1013.05 1012.15 1011.29 1010.49 1009.79 1009.23 1008.81 1008.56 1008.45 1008.48 1008.63 1008.90 1009.25 1009.65 1010.10 1010.58 1011.06 1011.53 1011.98 1012.41 1012.80 1013.15 1013.46 1013.73 1013.97 1014.16 1014.33 1014.46 1014.59 1014.69 1014.79 1014.88 1014.95 1015.02 1015.08 1015.12 1015.15 1015.17 1015.17 1015.18 1015.20 1015.23 1015.29
1014.37 1013.49 1012.57 1011.65 1010.77 1009.98 1009.29 1008.74 1008.33 1008.07 1007.96 1007.98 1008.13 1008.37 1008.70 1009.10 1009.55 1010.03 1010.52 1011.01 1011.49 1011.95 1012.38 1012.77 1013.12 1013.43 1013.70 1013.93 1014.12 1014.28 1014.42 1014.53 1014.62 1014.69 1014.75 1014.78 1014.80 1014.81 1014.79 1014.77 1014.75 1014.74 1014.74 1014.77
1014.73 1013.90 1013.02 1012.12 1011.23 1010.40 1009.65 1009.01 1008.49 1008.10 1007.84 1007.71 1007.70 1007.81 1008.02 1008.31 1008.67 1009.09 1009.54 1010.03 1010.52 1011.01 1011.48 1011.93 1012.35 1012.73 1013.06 1013.36 1013.61 1013.82 1014.00 1014.15 1014.26 1014.35 1014.41 1014.44 1014.45 1014.45 1014.43 1014.39 1014.35 1014.31 1014.29 1014.28
1015.04 1014.32 1013.53 1012.71 1011.89 1011.09 1010.34 1009.66 1009.07 1008.58 1008.19 1007.92 1007.75 1007.69 1007.73 1007.87 1008.09 1008.39 1008.75 1009.16 1009.61 1010.08 1010.55 1011.02 1011.47 1011.89 1012.28 1012.63 1012.93 1013.19 1013.41 1013.59 1013.74 1013.85 1013.93 1013.98 1014.01 1014.02 1014.00 1013.97 1013.93 1013.88 1013.84 1013.80
1015.33 1014.75 1014.11 1013.43 1012.72 1012.02 1011.33 1010.67 1010.06 1009.51 1009.03 1008.62 1008.30 1008.07 1007.93 1007.88 1007.93 1008.06 1008.28 1008.56 1008.91 1009.30 1009.72 1010.16 1010.60 1011.02 1011.42 1011.78 1012.11 1012.40 1012.65 1012.86 1013.04 1013.18 1013.29 1013.38 1013.43 1013.47 1013.48 1013.47 1013.44 1013.40 1013.36 1013.31
1015.59 1015.17 1014.70 1014.19 1013.65 1013.08 1012.50 1011.92 1011.34 1010.78 1010.24 1009.74 1009.30 1008.91 1008.60 1008.37 1008.22 1008.17 1008.21 1008.33 1008.54 1008.81 1009.13 1009.48 1009.85 1010.22 1010.59 1010.93 1011.25 1011.53 1011.79 1012.01 1012.21 1012.37 1012.51 1012.63 1012.72 1012.79 1012.84 1012.87 1012.88 1012.86 1012.84 1012.80
1015.79 1015.52 1015.23 1014.90 1014.53 1014.13 1013.69 1013.22 1012.72 1012.20 1011.66 1011.12 1010.60 1010.10 1009.65 1009.26 1008.95 1008.72 1008.58 1008.53 1008.57 1008.69 1008.86 1009.09 1009.35 1009.63 1009.92 1010.20 1010.46 1010.71 1010.93 1011.14 1011.32 1011.49 1011.65 1011.79 1011.92 1012.03 1012.12 1012.19 1012.24 1012.27 1012.27 1012.26
1015.85 1015.73 1015.59 1015.42 1015.23 1015.00 1014.72 1014.39 1014.00 1013.56 1013.07 1012.55 1012.00 1011.45 1010.92 1010.43 1009.99 1009.62 1009.33 1009.13 1009.01 1008.96 1008.99 1009.07 1009.19 1009.35 1009.52 1009.69 1009.87 1010.04 1010.20 1010.35 1010.51 1010.66 1010.81 1010.95 1011.10 1011.24 1011.37 1011.48 1011.58 1011.65 1011.69 1011.71
Thickness
5755 5753 5751 5746 5742 5738 5730 5728 5720 5721 5718 5720 5718 5712 5708 5702 5696 5691 5685 5681 5677 5673 5670 5667 5664 5660 5657 5655 5653 5650 5646 5641 5639 5638 5637 5637 5636 5637 5637 5638 5640 5641 5643 5645
5751 5754 5750 5745 5746 5742 5737 5735 5730 5727 5724 5733 5727 5720 5713 5707 5700 5693 5688 5684 5681 5677 5674 5670 5667 5663 5660 5657 5655 5652 5646 5642 5639 5638 5636 5635 5634 5634 5634 5635 5636 5637 5638 5639
5748 5755 5747 5741 5755 5750 5745 5746 5738 5727 5732 5735 5726 5720 5715 5711 5705 5698 5693 5688 5684 5679 5676 5674 5672 5668 5664 5661 5657 5652 5647 5643 5640 5637 5635 5634 5633 5632 5632 5632 5632 5633 5634 5635
5749 5747 5729 5753 5773 5767 5755 5753 5754 5747 5744 5739 5732 5728 5724 5718 5710 5703 5698 5692 5687 5683 5680 5678 5676 5672 5668 5664 5659 5653 5648 5644 5641 5638 5635 5633 5632 5631 5630 5630 5630 5630 5630 5630
5749 5742 5751 5758 5768 5765 5753 5750 5762 5755 5750 5744 5739 5730 5724 5724 5718 5710 5704 5697 5691 5687 5685 5682 5678 5674 5671 5666 5660 5653 5648 5645 5642 5639 5636 5633 5631 5630 5630 5629 5628 5628 5627 5627
5745 5734 5738 5759 5773 5777 5760 5745 5770 5764 5754 5747 5738 5718 5721 5729 5722 5715 5708 5701 5696 5692 5689 5684 5680 5677 5672 5666 5660 5654 5650 5647 5645 5642 5638 5634 5632 5630 5629 5628 5627 5627 5625 5625
5736 5738 5758 5770 5775 5768 5739 5749 5772 5769 5761 5752 5741 5734 5736 5734 5725 5718 5710 5705 5700 5696 5690 5686 5683 5679 5673 5667 5661 5657 5654 5650 5647 5644 5641 5637 5634 5632 5630 5628 5627 5625 5624 5622
5748 5740 5750 5772 5767 5759 5763 5774 5772 5770 5766 5757 5750 5745 5740 5734 5725 5719 5712 5707 5702 5697 5693 5690 5687 5681 5674 5668 5666 5662 5658 5654 5650 5646 5643 5640 5636 5633 5631 5629 5626 5624 5622 5620
5764 5762 5774 5779 5777 5781 5783 5777 5773 5770 5767 5762 5753 5746 5740 5734 5728 5722 5716 5710 5705 5700 5696 5693 5690 5684 5677 5673 5671 5666 5662 5658 5654 5650 5646 5641 5637 5634 5630 5628 5626 5623 5621 5618
5766 5774 5781 5782 5784 5785 5783 5779 5777 5774 5769 5763 5754 5748 5741 5736 5731 5725 5720 5714 5709 5704 5699 5696 5693 5689 5683 5679 5675 5671 5666 5662 5658 5653 5648 5643 5638 5635 5630 5626 5624 5623 5620 5618
5764 5775 5781 5783 5784 5784 5782 5780 5777 5774 5769 5763 5756 5750 5744 5738 5734 5729 5723 5718 5712 5707 5702 5700 5697 5692 5688 5683 5679 5674 5670 5666 5661 5656 5650 5645 5640 5634 5631 5626 5623 5621 5620 5619
5762 5781 5780 5782 5788 5787 5781 5776 5774 5770 5766 5763 5758 5751 5746 5741 5737 5731 5726 5720 5714 5710 5706 5704 5701 5696 5692 5688 5683 5678 5673 5669 5664 5659 5654 5650 5644 5637 5632 5629 5626 5624 5622 5621
5786 5790 5787 5787 5788 5787 5782 5777 5774 5770 5766 5761 5758 5753 5748 5742 5738 5733 5728 5723 5717 5713 5709 5706 5703 5699 5696 5692 5686 5682 5677 5672 5668 5664 5659 5654 5650 5644 5638 5632 5629 5627 5625 5623
5788 5784 5778 5780 5780 5783 5781 5778 5774 5770 5766 5762 5757 5753 5748 5743 5739 5733 5729 5725 5721 5716 5712 5708 5704 5701 5699 5695 5689 5684 5680 5675 5671 5666 5663 5659 5655 5651 5647 5641 5636 5632 5629 5627
5777 5777 5775 5778 5779 5778 5777 5774 5768 5764 5762 5759 5756 5751 5747 5741 5737 5734 5731 5727 5722 5716 5713 5709 5706 5703 5701 5697 5691 5687 5683 5679 5674 5671 5667 5663 5660 5656 5652 5649 5644 5640 5635 5631
5766 5770 5769 5768 5768 5769 5768 5766 5762 5760 5759 5757 5753 5750 5747 5742 5738 5734 5731 5727 5720 5715 5712 5709 5706 5704 5702 5697 5692 5688 5684 5679 5676 5672 5669 5667 5664 5660 5656 5652 5649 5645 5641 5637
5746 5748 5751 5753 5757 5760 5762 5762 5761 5760 5758 5755 5752 5749 5745 5740 5735 5732 5729 5726 5722 5718 5714 5711 5708 5706 5702 5697 5692 5688 5685 5681 5677 5673 5671 5669 5667 5663 5660 5656 5652 5649 5645 5642
5736 5740 5744 5747 5750 5752 5755 5758 5759 5758 5756 5754 5751 5747 5741 5737 5732 5729 5727 5724 5720 5716 5714 5712 5710 5706 5702 5697 5693 5689 5686 5684 5679 5676 5674 5671 5669 5667 5663 5660 5657 5653 5649 5645
5720 5725 5730 5735 5740 5744 5747 5751 5753 5754 5754 5752 5747 5743 5739 5736 5732 5729 5726 5721 5717 5712 5712 5711 5709 5705 5701 5697 5693 5688 5686 5684 5682 5680 5677 5673 5670 5668 5665 5663 5660 5658 5654 5650
5701 5708 5713 5719 5726 5730 5735 5741 5745 5747 5748 5747 5743 5739 5735 5733 5730 5726 5723 5719 5717 5715 5713 5711 5707 5703 5700 5697 5691 5688 5685 5683 5682 5680 5677 5674 5671 5669 5667 5666 5663 5661 5658 5655
5681 5687 5694 5701 5708 5715 5721 5727 5732 5735 5739 5739 5736 5733 5731 5729 5726 5723 5718 5714 5716 5714 5711 5708 5704 5701 5698 5695 5689 5686 5683 5682 5680 5679 5677 5674 5672 5670 5669 5667 5666 5663 5661 5659
5659 5666 5673 5681 5688 5696 5704 5711 5717 5722 5726 5728 5728 5727 5724 5721 5719 5717 5716 5713 5712 5710 5706 5702 5700 5698 5695 5691 5686 5683 5681 5679 5678 5677 5675 5674 5672 5670 5668 5667 5666 5665 5663 5660
5635 5642 5649 5657 5665 5674 5683 5690 5696 5703 5708 5712 5715 5715 5714 5713 5712 5708 5707 5709 5707 5704 5701 5698 5695 5693 5690 5686 5683 5680 5678 5676 5675 5674 5673 5672 5671 5669 5668 5667 5665 5664 5663 5661
5609 5616 5623 5631 5640 5648 5655 5663 5671 5680 5688 5695 5699 5702 5702 5701 5702 5705 5704 5703 5701 5697 5693 5692 5689 5686 5683 5680 5678 5676 5674 5673 5672 5671 5670 5669 5668 5667 5666 5665 5664 5663 5661 5660
5584 5590 5597 5603 5610 5616 5625 5635 5644 5652 5660 5667 5674 5681 5686 5689 5689 5692 5693 5692 5690 5687 5684 5683 5681 5678 5675 5674 5672 5671 5670 5668 5667 5666 5665 5664 5663 5662 5662 5661 5661 5660 5658 5657
5559 5564 5570 5576 5581 5587 5596 5604 5612 5620 5627 5634 5642 5651 5659 5666 5672 5676 5677 5679 5678 5675 5673 5672 5669 5667 5667 5666 5666 5665 5665 5664 5662 5660 5659 5659 5658 5657 5657 5656 5656 5655 5654 5654
5535 5540 5544 5550 5555 5560 5566 5573 5580 5588 5595 5601 5609 5620 5629 5637 5644 5650 5655 5657 5659 5658 5658 5659 5659 5657 5657 5656 5656 5657 5657 5657 5657 5655 5654 5652 5651 5651 5650 5651 5650 5649 5649 5648